Regional Weather Roundup
Issued by NWS

Home | Current Version | Previous Version | Graphics & Text | Print | Product List | Glossary On
Versions: 1 2 3 4 5 6 7 8 9 10 11 12 13 14 15 16 17 18 19 20 21 22 23 24 25 26 27 28
000
ASUS45 KBOI 202010
RWRID

IDAHO REGIONAL WEATHER ROUNDUP
NATIONAL WEATHER SERVICE BOISE ID
200 PM MDT SUN AUG 20 2017

NOTE: "FAIR" INDICATES FEW OR NO CLOUDS BELOW 12000 FEET
WITH NO SIGNIFICANT WEATHER AND/OR OBSTRUCTIONS TO VISIBILITY

IDZ012-014-202100-
SOUTHWEST IDAHO


CITY           SKY/WX    TMP DP  RH WIND       PRES   REMARKS
BOISE          SUNNY     81  40  23 NW12      30.03F
CALDWELL       SUNNY     81  43  26 W9        30.03F
MOUNTAIN HOME  SUNNY     84  41  21 NW14G20   30.02F
$$

IDZ016-017-202100-
SOUTHCENTRAL IDAHO


CITY           SKY/WX    TMP DP  RH WIND       PRES   REMARKS
BURLEY         SUNNY     78  42  27 W9        30.07F
JEROME         SUNNY     79  45  29 SW8       30.09F
TWIN FALLS     SUNNY     79  43  27 NW10      30.09F
$$

IDZ019>023-202100-
SOUTHEAST IDAHO


CITY           SKY/WX    TMP DP  RH WIND       PRES   REMARKS
IDAHO FALLS    SUNNY     78  36  21 S8        30.10F
POCATELLO      SUNNY     82  35  18 SW9       30.09F
REXBURG        SUNNY     77  35  21 SW8       30.10F
$$

IDZ006-010-011-018-031-032-202100-
CENTRAL IDAHO MOUNTAINS


CITY           SKY/WX    TMP DP  RH WIND       PRES   REMARKS
MCCALL         MOSUNNY   74  26  16 SW8       30.13S
HAILEY         SUNNY     75  43  31 SE12      30.13F
STANLEY          N/A     77  25  14 N8        30.17F
SALMON         SUNNY     75  36  24 NW3       30.07F
CHALLIS        MOSUNNY   78  28  16 E3        30.08F
$$

IDZ002-004-006-007-026-202100-
NORTHERN IDAHO


CITY           SKY/WX    TMP DP  RH WIND       PRES   REMARKS
LEWISTON       PTSUNNY   81  43  26 N5        30.04F
LOWELL           N/A     83  40  21 CALM      30.02F
COEUR D`ALENE  PTSUNNY   76  45  33 S3        30.08F
MULLAN PASS    CLOUDY    64  37  36 MISG      30.21S
$$




USA.gov is the U.S. government's official web portal to all federal, state and local government web resources and services.